Location: Niverville
(49.6028°N, 97.0419°W)
Time: 04:14:43
(UTC-06:00)

Daily predictions for brighter satellites

Satellite Brightness Start Highest point End
(mag) Time Altitude Azimuth Time Altitude Azimuth Time Altitude Azimuth
Cosmos 2219 Rocket 4.5 03:49:27 19° NE 03:49:27 19° NE 03:50:59 10° NE
Cosmos 2333 Rocket 4.2 03:56:53 23° NE 03:56:53 23° NE 03:59:04 10° NE
SL-16 R/B 4.1 04:17:22 19° SE 04:19:50 27° ESE 04:24:30 10° NE
Cosmos 2360 Rocket 4.5 04:36:06 14° N 04:36:06 14° N 04:36:56 10° NNE
USA 215 4.5 04:31:49 10° ENE 04:37:43 35° SE 04:40:47 24° S
Cosmos 2181 Rocket 4.2 04:42:26 68° SE 04:42:26 68° SE 04:48:01 10° SSE
Cosmos 2237 Rocket 2.8 04:52:17 49° NNE 04:52:17 49° NNE 04:56:20 10° NNE
Cosmos 1709 Rocket 3.9 04:52:05 82° E 04:52:05 82° E 04:58:17 10° N
CENTAUR R/B 2.8 04:58:46 50° S 05:00:24 68° SE 05:07:23 10° NE
Tiangong 2 4.4 05:05:56 11° SE 05:05:56 11° SE 05:06:12 10° ESE
Cosmos 1536 Rocket 4.4 05:06:15 50° ENE 05:06:19 50° ENE 05:10:37 10° SSE
Cosmos 1238 Rocket 3.6 05:08:45 66° ESE 05:08:45 66° ESE 05:13:41 10° SSE
ADEOS II 3.1 05:09:29 10° N 05:12:25 34° N 05:12:25 34° N
Cosmos 2369 Rocket 3.5 05:12:19 21° N 05:15:28 35° NE 05:20:41 10° ESE
Lacrosse 5 rocket 2.7 05:19:05 34° NNE 05:19:05 34° NNE 05:21:45 10° NE
ATLAS 3B R/B 3.9 05:17:17 27° NNW 05:18:02 28° NNW 05:23:57 10° NE
Cosmos 1980 4.1 05:25:39 47° NNW 05:25:39 47° NNW 05:30:18 10° NNE
NOSS 3-2 (C) 4.0 05:26:55 43° NW 05:27:13 43° NNW 05:33:52 10° NE
Cosmos 2219 Rocket 3.2 05:31:13 31° NNW 05:31:13 31° NNW 05:34:55 10° NNE
Cosmos 921 Rocket 3.0 05:31:59 74° SSW 05:31:59 74° SSW 05:36:08 10° SSE
ATLAS 5 CENTAUR R/B 3.7 05:33:24 20° N 05:33:34 20° N 05:37:45 10° NE
CZ-4C R/B 3.8 05:32:24 23° NNW 05:33:36 24° N 05:39:03 10° NE
COSMO-SKYMED 1 2.5 05:31:15 10° SSE 05:35:35 88° ENE 05:36:16 64° N
Cosmos 2333 Rocket 2.8 05:38:55 37° NNW 05:38:55 37° NNW 05:43:23 10° NNE
Cosmos 2056 Rocket 3.5 05:37:04 33° NNW 05:39:28 76° ENE 05:44:36 10° SSE
Meteor 1-14 Rocket 4.1 05:34:29 10° SSW 05:40:06 65° WNW 05:45:40 10° N
Okean 1 3.2 05:45:17 70° SW 05:45:17 70° SW 05:49:02 10° S
Cosmos 773 Rocket 4.2 05:48:22 46° NW 05:48:22 46° NW 05:53:03 10° NNE
Cosmos 2327 Rocket 4.4 05:44:26 10° S 05:50:50 86° W 05:57:12 10° N
USA 32 4.0 05:48:21 22° NNW 05:51:42 60° W 05:56:50 10° S
Cosmos 1624 Rocket 3.9 05:50:58 31° NNW 05:53:35 79° WSW 05:58:53 10° SSE
NOSS 3-2 (A) 4.4 05:53:08 30° NW 05:54:38 33° NNW 06:00:58 10° NE
Cosmos 923 Rocket 4.1 05:53:50 33° WSW 05:56:00 55° WNW 06:01:13 10° NNE
DMSP B5D1-3 4.4 05:51:36 10° S 05:56:45 75° WSW 06:01:04 15° NNW
Cosmos 1371 Rocket 4.0 05:55:32 35° NW 05:57:39 62° WSW 06:02:50 10° S
Ariane Rocket 3.4 05:53:39 10° NNE 05:58:43 66° ESE 06:03:44 10° S
Cosmos 2074 Rocket 3.9 05:53:31 10° SSW 05:59:47 72° WNW 06:06:04 10° N
Cosmos 1300 Rocket 3.8 05:57:32 10° S 06:01:57 70° E 06:06:21 10° NNE
Meteor 1-25 Rocket 4.2 05:57:25 10° SSW 06:03:13 63° WNW 06:09:00 10° N
SL-16 R/B 2.2 05:59:25 18° SW 06:03:35 60° WNW 06:09:13 10° NNE
Cosmos 1346 Rocket 2.8 06:04:27 51° W 06:04:33 51° W 06:08:20 10° S
Cosmos 1602 4.3 06:01:06 10° S 06:04:59 60° E 06:08:55 10° NNE
Meteor 1-13 Rocket 4.3 05:59:29 10° NNW 06:05:29 84° W 06:11:26 10° S
CRYOSAT 2 4.3 06:01:07 10° S 06:05:56 60° W 06:10:49 10° N
Cosmos 292 Rocket 3.7 06:02:56 10° SW 06:07:43 61° WNW 06:12:31 10° NNE
Cosmos 1943 Rocket 3.2 06:04:22 11° NNW 06:09:22 40° NE 06:14:32 10° ESE
COSMOS 2428 4.4 06:10:55 16° NNW 06:10:55 16° NNW 06:14:08 10° N
SL-24 DEB 4.4 06:06:22 10° SSE 06:11:08 77° E 06:15:57 10° N
CZ-4 R/B 3.1 06:09:44 10° NNE 06:13:24 34° E 06:16:59 10° SSE
Cosmos 2184 Rocket 3.9 06:07:29 10° SSW 06:13:34 60° WNW 06:19:44 10° N
Cosmos 2360 Rocket 4.3 06:17:53 10° NNW 06:18:03 10° NNW 06:19:01 10° N
Lacrosse 4 Rocket 3.2 06:17:31 12° NNW 06:20:46 26° NE 06:24:16 10° E
Meteor 1-23 Rocket 4.4 06:15:30 10° N 06:21:04 71° ENE 06:26:37 10° SSE
USA 215 3.2 06:14:38 10° ENE 06:21:12 87° NNW 06:27:45 10° WSW
SKYMED 2 4.3 06:19:57 10° SSW 06:23:50 32° W 06:24:53 28° WNW
Cosmos 1680 Rocket 3.8 06:19:42 10° SW 06:24:38 42° WNW 06:29:37 10° NNE
Cosmos 2151 Rocket 4.1 06:21:09 10° SW 06:25:18 36° WNW 06:29:28 10° N
CSL-04 DEB 4.3 06:24:34 10° N 06:28:33 65° WNW 06:32:36 10° SSW
Cosmos 2154 Rocket 3.9 06:22:35 10° S 06:28:48 83° W 06:35:04 10° N
Cosmos 1452 Rocket 3.5 06:23:52 11° NNW 06:29:04 86° ENE 06:34:21 10° SSE
Meteor 1-28 Rocket 3.6 06:28:05 10° S 06:31:41 41° W 06:33:59 20° NW
Cosmos 1536 2.9 06:29:58 10° S 06:33:57 77° E 06:37:59 10° NNE
Cosmos 1633 2.4 06:30:23 10° SSW 06:34:01 71° W 06:37:41 10° N
Meteor 2-13 Rocket 4.4 06:27:54 10° SSW 06:34:05 81° W 06:40:18 10° N
Cosmos 2237 Rocket 3.3 06:34:09 20° WNW 06:35:31 22° NW 06:39:53 10° N
Radarsat Rocket 4.4 06:30:01 10° NNE 06:36:37 59° WNW 06:44:03 10° SW
Meteor 2-4 Rocket 3.6 06:34:19 10° NNW 06:39:46 74° W 06:45:20 10° S
Tiangong 2 3.0 06:38:00 12° SW 06:40:15 23° S 06:42:50 10° ESE
Okean-O 4.4 06:37:32 10° NNW 06:38:48 14° NNW 06:38:48 14° NNW
Cosmos 1340 2.9 06:43:41 10° N 06:47:30 72° ENE 06:51:16 10° SSE
CZ-2C R/B 3.1 06:42:28 10° NNE 06:47:39 63° E 06:52:43 10° S
Helios 1B rocket 2.4 06:43:47 10° SSE 06:47:56 85° WSW 06:52:08 10° NNW
CSL-04 Debris 4.1 06:43:47 10° NNE 06:49:13 72° WNW 06:54:40 10° SSW
CSL-04 Rocket 3.7 06:43:52 10° N 06:49:23 63° WNW 06:54:50 10° SSW
Cosmos 839 Rocket 4.2 06:42:33 10° NW 06:49:34 77° NE 06:55:44 10° SE
YAOGAN 1 3.2 06:46:51 10° NNE 06:51:09 60° ESE 06:55:25 10° S
CENTAUR R/B 3.1 06:46:00 13° W 06:51:34 42° NNW 06:58:29 10° NE
ADEOS II 3.7 06:51:04 10° NNW 06:53:22 14° NW 06:53:22 14° NW
Meteor 1-5 Rocket 4.4 06:50:25 10° S 06:55:46 71° E 07:01:04 10° NNE
Lacrosse 5 rocket 2.5 06:54:49 16° WNW 06:57:30 30° N 07:01:24 10° ENE
SL-23 DEB 3.7 06:56:34 17° W 06:58:49 57° SSW 07:02:29 10° SE
Cosmos 2369 Rocket 2.5 06:54:12 10° NW 06:59:42 50° WSW 07:05:11 10° S
DNEPR-1 R/B 4.5 06:53:06 10° SW 06:59:56 60° NW 07:05:32 10° NE
SMAP 3.3 06:55:32 10° NNE 07:00:13 78° ESE 07:04:53 10° S
Cosmos 1603 3.8 06:55:28 10° SW 07:01:04 55° NW 07:06:39 10° NNE
Cosmos 1025 Rocket 3.3 06:57:22 10° NNW 07:01:35 46° W 07:05:46 10° SSW
Cosmos 44 4.3 06:59:35 10° SSW 07:04:49 56° ESE 07:09:52 10° NE
GRACE-2 4.2 07:02:38 10° NNW 07:05:18 42° W 07:07:58 10° SSW
GRACE-1 4.2 07:03:04 10° NNW 07:05:44 41° W 07:08:23 10° SSW
SL-8 Rocket 4.1 06:59:56 10° S 07:06:12 90° WNW 07:12:29 10° N
SOZ 4.2 07:04:38 10° WSW 07:06:38 63° SSE 07:08:47 10° ENE
Okean 1 Rocket 3.7 07:03:45 10° SW 07:07:46 34° WNW 07:11:46 10° N
ATLAS 3B R/B 4.0 07:04:50 10° NW 07:10:59 29° NNE 07:16:50 10° ENE
COSMO-SKYMED 1 4.4 07:10:57 10° WSW 07:12:24 11° W 07:13:28 11° WNW
PAYLOAD A 4.2 07:07:10 10° N 07:12:24 61° WNW 07:17:43 10° SSW
Cosmos 1544 Rocket 3.6 07:09:05 10° S 07:13:26 84° E 07:17:51 10° N
Cosmos 2219 Rocket 4.0 07:13:19 10° NW 07:15:27 12° NNW 07:17:34 10° N
Cosmos 1975 4.1 07:11:46 10° SSE 07:15:41 46° E 07:19:38 10° NNE
Lacrosse 5 2.3 07:11:09 10° SW 07:16:14 69° SE 07:21:19 10° ENE
SPOT 3 Rocket 3.5 07:11:02 10° NNE 07:16:14 85° WNW 07:21:23 10° SSW
Cosmos 2366 rocket 4.2 07:10:10 10° S 07:16:27 81° E 07:22:50 10° N
Cosmos 2218 Rocket 4.1 07:12:42 10° S 07:19:07 87° W 07:25:35 10° N
CORIOLIS 4.2 07:14:32 10° NNE 07:19:56 90° ENE 07:25:18 10° SSW
ATLAS 5 CENTAUR R/B 3.7 07:15:39 10° NW 07:20:09 24° NNE 07:24:58 10° ENE
Cosmos 1959 Rocket 4.5 07:15:52 10° S 07:21:59 83° W 07:28:09 10° N
Cosmos 2333 Rocket 4.0 07:21:37 10° NW 07:24:04 13° NNW 07:26:30 10° N
CZ-4C R/B 3.9 07:18:21 10° NW 07:24:10 32° NNE 07:30:39 10° E
Cosmos 1420 Rocket 4.2 07:21:01 10° NNW 07:26:10 55° WSW 07:31:15 10° S
MOS 1 4.3 07:21:31 10° NNE 07:27:11 75° WNW 07:32:48 10° SSW
Cosmos 1943 3.2 07:22:34 10° SW 07:28:11 69° WNW 07:33:51 10° NNE
Cosmos 1515 3.7 07:25:14 10° N 07:29:07 87° W 07:32:57 10° S
Okean 2 4.1 07:26:57 10° NNW 07:30:47 35° W 07:34:34 10° SSW
MONITOR-E 4.2 07:27:52 10° N 07:31:04 72° WNW 07:34:15 10° SSW
Cosmos 1892 Rocket 4.1 07:26:57 10° NNW 07:31:07 40° W 07:35:17 10° SSW
IDEFIX/ARIANE 42P 2.6 07:28:38 10° N 07:33:44 60° WNW 07:38:50 10° SSW
Cosmos 44 Rocket 3.5 07:29:12 10° SW 07:34:19 62° NW 07:39:24 10° NE
